| time (UTC) | temp F | wind direction | speed MPH | gust MPH | rain 1hr in | rain 24hr in | rain mn in | humidity % | barometer mb |
| 20260505180101 | 43 | 350 | 10.0 | 21.0 | 0.38 | 1.57 | 0.38 | 39 | 1012.8 |
| 20260505174543 | 42 | 344 | 7.0 | 16.0 | 0.28 | 1.79 | 0.19 | 42 | 1012.9 |
| 20260505173035 | 41 | 323 | 9.0 | 16.0 | 0.23 | 1.71 | 0.11 | 43 | 1013.2 |
| 20260505171632 | 42 | 331 | 6.0 | 14.0 | 0.22 | 1.62 | 0.02 | 42 | 1013.1 |
| 20260505170025 | 41 | 314 | 6.0 | 17.0 | 0.23 | 1.60 | 0.00 | 44 | 1013.3 |
| 20260505164521 | 41 | 340 | 7.0 | 13.0 | 0.15 | 1.78 | 1.51 | 46 | 1013.2 |
| 20260505163021 | 40 | 316 | 9.0 | 20.0 | 0.15 | 1.75 | 1.48 | 46 | 1013.2 |
| 20260505161519 | 40 | 334 | 7.0 | 16.0 | 0.11 | 1.67 | 1.40 | 48 | 1013.4 |
| 20260505153048 | 38 | 303 | 5.0 | 14.0 | 0.09 | 1.88 | 1.33 | 55 | 1013.5 |
| 20260505151544 | 38 | 340 | 8.0 | 14.0 | 0.05 | 1.84 | 1.29 | 54 | 1013.4 |
| 20260505124525 | 31 | 344 | 1.0 | 4.0 | 0.00 | 2.54 | 1.24 | 81 | 1012.5 |
| 20260505123030 | 29 | 108 | 0.0 | 1.0 | 0.00 | 2.54 | 1.24 | 81 | 1012.2 |
| 20260505121550 | 29 | 89 | 1.0 | 2.0 | 0.00 | 2.54 | 1.24 | 81 | 1011.9 |
| 20260505120106 | 28 | 1 | 1.0 | 2.0 | 0.00 | 2.54 | 1.24 | 80 | 1011.9 |
| 20260505114543 | 30 | 241 | 1.0 | 2.0 | 0.00 | 2.54 | 1.24 | 79 | 1011.7 |
| 20260505113040 | 30 | 314 | 1.0 | 2.0 | 0.00 | 2.54 | 1.24 | 80 | 1011.3 |
| 20260505111539 | 30 | 37 | 1.0 | 4.0 | 0.00 | 2.54 | 1.24 | 80 | 1011.3 |
| 20260505101531 | 30 | 1 | 1.0 | 4.0 | 0.00 | 2.54 | 1.24 | 84 | 1011.4 |
| 20260505100027 | 32 | 178 | 0.0 | 1.0 | 0.00 | 2.54 | 1.24 | 83 | 1011.1 |
| 20260505094555 | 33 | 234 | 0.0 | 2.0 | 0.00 | 2.54 | 1.24 | 83 | 1010.9 |
| 20260505093052 | 34 | 303 | 1.0 | 3.0 | 0.00 | 2.54 | 1.24 | 84 | 1010.8 |
| 20260505091519 | 34 | 340 | 1.0 | 3.0 | 0.00 | 2.54 | 1.24 | 84 | 1010.7 |
| 20260505090018 | 35 | 70 | 2.0 | 5.0 | 0.00 | 2.54 | 1.24 | 83 | 1010.8 |
| 20260505084553 | 36 | 1 | 3.0 | 7.0 | 0.00 | 2.54 | 1.24 | 82 | 1010.8 |
| 20260505083055 | 37 | 1 | 2.0 | 4.0 | 0.00 | 2.54 | 1.24 | 82 | 1010.8 |
| 20260505081538 | 37 | 314 | 1.0 | 4.0 | 0.00 | 2.54 | 1.24 | 82 | 1010.8 |
| 20260505080038 | 37 | 318 | 2.0 | 6.0 | 0.00 | 2.54 | 1.24 | 82 | 1010.8 |
| 20260505074536 | 37 | 350 | 3.0 | 7.0 | 0.03 | 2.54 | 1.24 | 82 | 1010.8 |
| 20260505073035 | 37 | 295 | 3.0 | 7.0 | 0.03 | 2.54 | 1.24 | 81 | 1010.6 |
| 20260505071530 | 38 | 354 | 4.0 | 8.0 | 0.03 | 2.54 | 1.24 | 79 | 1010.8 |
| 20260505070030 | 39 | 349 | 4.0 | 10.0 | 0.03 | 2.54 | 1.24 | 73 | 1010.9 |
| 20260505064532 | 40 | 341 | 5.0 | 11.0 | 0.00 | 2.52 | 1.21 | 68 | 1010.7 |
| 20260505063019 | 40 | 23 | 2.0 | 6.0 | 0.00 | 2.52 | 1.21 | 68 | 1010.5 |
| 20260505061516 | 40 | 340 | 1.0 | 5.0 | 0.00 | 2.52 | 1.21 | 68 | 1010.4 |
| 20260505060044 | 40 | 41 | 2.0 | 4.0 | 0.00 | 2.52 | 1.21 | 64 | 1010.2 |
| 20260505054548 | 41 | 25 | 2.0 | 4.0 | 0.00 | 2.52 | 1.21 | 60 | 1010.1 |
| 20260505053035 | 42 | 1 | 1.0 | 3.0 | 0.00 | 2.52 | 1.21 | 58 | 1010.0 |
| 20260505051532 | 43 | 294 | 3.0 | 7.0 | 0.00 | 2.52 | 1.21 | 57 | 1009.9 |
| 20260505041603 | 44 | 269 | 3.0 | 6.0 | 0.00 | 2.52 | 1.21 | 54 | 1009.9 |
| 20260505040056 | 44 | 293 | 2.0 | 6.0 | 0.00 | 2.52 | 1.21 | 54 | 1009.9 |
| 20260505034606 | 44 | 281 | 2.0 | 5.0 | 0.00 | 2.52 | 1.21 | 54 | 1009.8 |
| 20260505033045 | 44 | 314 | 1.0 | 4.0 | 0.00 | 2.52 | 1.21 | 55 | 1009.6 |
| 20260505031545 | 44 | 349 | 1.0 | 5.0 | 0.00 | 2.52 | 1.21 | 54 | 1009.4 |
| 20260505030046 | 44 | 316 | 2.0 | 7.0 | 0.00 | 2.52 | 1.21 | 52 | 1009.2 |
| 20260505024530 | 45 | 307 | 4.0 | 8.0 | 0.00 | 2.52 | 1.21 | 51 | 1009.0 |
| 20260505023030 | 45 | 8 | 3.0 | 8.0 | 0.00 | 2.52 | 1.21 | 51 | 1008.9 |
| 20260505021524 | 46 | 333 | 4.0 | 9.0 | 0.00 | 2.52 | 1.21 | 50 | 1008.7 |
| 20260505020019 | 46 | 1 | 2.0 | 7.0 | 0.00 | 2.52 | 1.21 | 48 | 1008.6 |
| 20260505014523 | 46 | 319 | 5.0 | 10.0 | 0.00 | 2.52 | 1.21 | 47 | 1008.5 |
| 20260505013018 | 46 | 274 | 3.0 | 9.0 | 0.00 | 2.52 | 1.21 | 46 | 1008.3 |
| 20260505011511 | 46 | 337 | 4.0 | 9.0 | 0.00 | 2.52 | 1.21 | 45 | 1008.2 |
| 20260505010005 | 46 | 324 | 3.0 | 11.0 | 0.00 | 2.52 | 1.21 | 45 | 1008.1 |
| 20260505004506 | 46 | 297 | 4.0 | 7.0 | 0.00 | 2.58 | 1.21 | 52 | 1007.9 |
| 20260505003101 | 46 | 347 | 2.0 | 5.0 | 0.01 | 2.58 | 1.21 | 54 | 1007.9 |
| 20260505001559 | 46 | 329 | 4.0 | 9.0 | 0.02 | 2.58 | 1.21 | 54 | 1007.8 |
| 20260505000026 | 46 | 322 | 4.0 | 10.0 | 0.02 | 2.58 | 1.21 | 54 | 1007.9 |
| 20260504234528 | 46 | 18 | 5.0 | 12.0 | 0.02 | 2.62 | 1.21 | 55 | 1007.8 |
| 20260504233052 | 46 | 18 | 6.0 | 12.0 | 0.02 | 2.61 | 1.20 | 54 | 1007.7 |
| 20260504231619 | 47 | 342 | 5.0 | 15.0 | 0.02 | 2.60 | 1.19 | 53 | 1007.5 |
| 20260504230049 | 47 | 1 | 5.0 | 11.0 | 0.05 | 2.60 | 1.19 | 54 | 1007.3 |
| 20260504224547 | 47 | 319 | 5.0 | 13.0 | 0.05 | 2.66 | 1.19 | 53 | 1007.2 |
| 20260504223048 | 47 | 309 | 7.0 | 16.0 | 0.04 | 2.65 | 1.18 | 53 | 1007.3 |
| 20260504221621 | 47 | 325 | 6.0 | 14.0 | 0.03 | 2.64 | 1.17 | 52 | 1007.3 |
| 20260504220043 | 48 | 356 | 7.0 | 15.0 | 0.01 | 2.61 | 1.13 | 50 | 1007.2 |
| 20260504214543 | 47 | 337 | 7.0 | 12.0 | 0.02 | 2.62 | 1.13 | 50 | 1007.3 |
| 20260504213045 | 46 | 353 | 5.0 | 13.0 | 0.03 | 2.62 | 1.13 | 51 | 1007.5 |
| 20260504211538 | 47 | 322 | 8.0 | 17.0 | 0.14 | 2.62 | 1.13 | 50 | 1007.6 |
| 20260504210005 | 47 | 310 | 5.0 | 11.0 | 0.19 | 2.61 | 1.12 | 46 | 1007.6 |
| 20260504204502 | 47 | 34 | 6.0 | 12.0 | 0.22 | 2.62 | 1.12 | 44 | 1007.5 |
| 20260504203034 | 48 | 4 | 5.0 | 16.0 | 0.21 | 2.59 | 1.09 | 45 | 1007.5 |
| 20260504201528 | 48 | 343 | 8.0 | 15.0 | 0.18 | 2.50 | 1.00 | 44 | 1007.4 |
| 20260504200023 | 49 | 8 | 7.0 | 17.0 | 0.18 | 2.44 | 0.94 | 44 | 1007.2 |
| 20260504194523 | 50 | 318 | 8.0 | 16.0 | 0.18 | 2.40 | 0.90 | 43 | 1007.2 |
| 20260504193019 | 50 | 34 | 7.0 | 16.0 | 0.28 | 2.38 | 0.88 | 47 | 1007.0 |
| 20260504191512 | 50 | 335 | 8.0 | 14.0 | 0.34 | 2.31 | 0.82 | 48 | 1007.1 |
| 20260504190012 | 49 | 348 | 8.0 | 17.0 | 0.35 | 2.25 | 0.76 | 49 | 1007.1 |
| 20260504184525 | 50 | 4 | 10.0 | 19.0 | 0.36 | 2.37 | 0.71 | 49 | 1007.4 |
| 20260504183003 | 50 | 322 | 8.0 | 17.0 | 0.45 | 2.24 | 0.57 | 49 | 1007.0 |
| 20260504181610 | 50 | 303 | 8.0 | 16.0 | 0.41 | 2.14 | 0.48 | 51 | 1006.9 |